Regional Weather Roundup
Issued by NWS

Home | Current Version | Previous Version | Text Only | Print | Product List | Glossary Off
Versions: 1 2 3 4 5 6 7 8 9 10 11 12 13 14 15 16 17 18 19 20 21 22 23 24 25 26 27 28 29 30 31 32 33 34 35 36 37 38 39 40 41 42 43 44 45 46 47 48 49 50

000
ASUS43 KFSD 192202
RWRSD

WEATHER ROUNDUP FOR SOUTH DAKOTA
NATIONAL WEATHER SERVICE SIOUX FALLS SD
500 PM CDT SUN APR 19 2015

NOTE: "FAIR" INDICATES FEW OR NO CLOUDS BELOW 12,000 FEET WITH NO
SIGNIFICANT WEATHER AND/OR OBSTRUCTIONS TO VISIBILITY.


SDZ001>005-009-010-012>017-192300-
NORTHWEST AND NORTH CENTRAL SOUTH DAKOTA

CITY           SKY/WX    TMP DP  RH WIND       PRES   REMARKS
BUFFALO          N/A     49  21  33 NW30G41   29.91F
FAITH            N/A     48  24  39 NW30G37   29.94F
MOBRIDGE       CLOUDY    51  34  52 NW23G32   29.86S
$$

SDZ012>016-024>037-041>051-057-063-072>074-192300-
SOUTHWEST AND SOUTH CENTRAL SOUTH DAKOTA

CITY           SKY/WX    TMP DP  RH WIND       PRES   REMARKS
RAPID CTY ARPT PTSUNNY   53  21  28 N28G43    29.98F
PIERRE         CLOUDY    49  31  49 NW24      29.90F
CUSTER         CLOUDY    40  14  34 N12G23    29.98F
ELLSWORTH AFB  PTSUNNY   52  20  28 NW35G44   29.95
PHILIP         PTSUNNY   50  26  39 N24G37    29.96S
PINE RIDGE     CLOUDY    50  21  32 N17G24    29.98F
WINNER         CLOUDY    53  27  36 NW31G40   29.89F
$$

SDZ004>011-016>023-039-040-192300-
NORTHEAST SOUTH DAKOTA

CITY           SKY/WX    TMP DP  RH WIND       PRES   REMARKS
ABERDEEN       PTSUNNY   53  36  52 NW28G38   29.80R
WATERTOWN      PTSUNNY   52  32  46 NW35G43   29.73F
BROOKINGS      PTSUNNY   54  34  47 N29       29.72F
SISSETON         N/A     51  39  63 N32G38    29.70F
$$

SDZ017-020-022-023-036>040-048>070-192300-
SOUTHEAST SOUTH DAKOTA

CITY           SKY/WX    TMP DP  RH WIND       PRES   REMARKS
SIOUX FALLS    PTSUNNY   56  29  35 NW26G37   29.73S
HURON          CLOUDY    54  30  40 NW29G36   29.78F
MITCHELL       CLOUDY    56  30  37 NW29G43   29.80F
YANKTON        PTSUNNY   54  28  37 NW22G36   29.78R
$$

ABBREVIATIONS USED IN REMARKS
   TC - TEMPERATURE IN CELSIUS
  WCI - WIND CHILL INDEX
   HX - HEAT INDEX
  VSB - VISIBILITY




USA.gov is the U.S. government's official web portal to all federal, state and local government web resources and services.